Regional Weather Roundup
Issued by NWS

Home | Current Version | Previous Version | Graphics & Text | Print | Product List | Glossary On
Versions: 1 2 3 4 5 6 7 8 9 10 11 12 13 14 15 16 17 18 19 20 21 22 23 24 25 26 27 28 29 30 31 32 33 34 35 36 37 38 39 40 41 42 43 44 45 46 47 48 49 50
000
ASUS43 KOAX 221102
RWRNE

WEATHER ROUNDUP FOR NEBRASKA
NATIONAL WEATHER SERVICE OMAHA NE
500 AM CST MON JAN 22 2018

NOTES: SATELLITE DATA IS BEING USED TO AUGMENT CLOUD COVER ABOVE
       12000 FEET.
       "FAIR" INDICATES FEW OR NO CLOUDS BELOW 12,000 FEET WITH NO
       SIGNIFICANT WEATHER AND/OR OBSTRUCTIONS TO VISIBILITY.


NEZ001>004-019>022-054>056-221200-
NEBRASKA PANHANDLE

CITY           SKY/WX    TMP DP  RH WIND       PRES   REMARKS
SCOTTSBLUFF    MOCLDY    23  15  71 W13       29.98R WCI  11
ALLIANCE       CLOUDY    24  18  77 NW17      29.93R WCI  11
CHADRON        PTCLDY    15  10  80 SW5       30.00S WCI   8
GORDON         FAIR      26  20  77 N14       29.93S WCI  14
KIMBALL        MOCLDY    19  12  72 CALM      29.95R
SIDNEY         CLOUDY    24  18  77 NW20      29.93R WCI  10
$$

NEZ057>060-069>072-079>082-221200-
SOUTHWEST NEBRASKA

CITY           SKY/WX    TMP DP  RH WIND       PRES   REMARKS
NORTH PLATTE   FOG       28  25  88 NW23G33   29.79R VSB 1   WCI  14
IMPERIAL       CLOUDY    27  26  96 NW33G43   29.83R FOG     WCI  10
LEXINGTON      CLOUDY    31  29  92 N16G22    29.67R WCI  20
MCCOOK         SNOW      29  29 100 N33G47    29.72R VSB 1/2 WCI  13
OGALLALA       CLOUDY    29  26  90 NW24G30   29.88R WCI  15
$$

NEZ005>010-023>029-035>040-094-221200-
NORTH CENTRAL NEBRASKA

CITY           SKY/WX    TMP DP  RH WIND       PRES   REMARKS
VALENTINE      LGT SNOW  27  24  89 NW17      29.89S FOG     WCI  14
AINSWORTH      CLOUDY    26  26  99 N25G31    29.84R WCI  11
BROKEN BOW     CLOUDY    30  27  88 N32G41    29.70R FOG     WCI  14
O`NEILL        CLOUDY    28  28 100 N33G39    29.73R WCI  11
ORD            SNOW      31  29  92 N20G31    29.69R VSB 1/2 WCI  19
THEDFORD       CLOUDY    28  26  93 N29G38    29.82R WCI  12
$$

NEZ041-046>049-061>064-073>077-083>087-221200-
SOUTH CENTRAL NEBRASKA

CITY           SKY/WX    TMP DP  RH WIND       PRES   REMARKS
GRAND ISLAND   LGT SNOW  32  32 100 N29G37    29.56S FOG     WCI  18
AURORA         LGT SNOW  32  32 100 N25G37    29.54R WCI  19
HASTINGS       CLOUDY    32  29  88 N22G32    29.56S WCI  19
HEBRON         CLOUDY    35  34  99 N13       29.50S FOG     WCI  26
HOLDREGE       MIX PCPN  31  31  98 N9G16     29.61R WCI  23
KEARNEY        LGT SNOW  31  30  96 N24G30    29.61R FOG     WCI  17
YORK           LGT RAIN  32  32 100 N22G32    29.52R WCI  19
$$

NEZ011>018-030>034-042>045-221200-
NORTHEAST NEBRASKA

CITY           SKY/WX    TMP DP  RH WIND       PRES   REMARKS
NORFOLK        LGT SNOW  37  30  75 N28G40    29.54S WCI  25
ALBION         LGT SNOW  33  31  95 N26G32    29.57R VSB 1   WCI  19
BLAIR          CLOUDY    37  34  90 NE9G20    29.46R WCI  30
COLUMBUS       LGT SNOW  32  30  92 N14       29.58S FOG     WCI  22
FREMONT        LGT RAIN  36  34  93 N12G18    29.49F WCI  27
TEKAMAH        CLOUDY    36  33  89 N20G28    29.48F WCI  25
WAYNE          LGT SNOW  32  31  96 N32G40    29.54F VSB 1   WCI  17
$$

NEZ050>053-065>068-078-088>093-221200-
SOUTHEAST NEBRASKA

CITY           SKY/WX    TMP DP  RH WIND       PRES   REMARKS
LINCOLN        HVY RAIN  34  32  92 N25G38    29.43F FOG     WCI  21
OMAHA EPPLEY   CLOUDY    37  34  89 N9        29.46S WCI  30
BEATRICE       CLOUDY    37  36  96 N8        29.44S WCI  30
FALLS CITY     CLOUDY    37  36  96 N6        29.40F WCI  32
NEBRASKA CITY  CLOUDY    36  36 100 N16       29.39F FOG     WCI  26
PLATTSMOUTH    TSTM      36  36 100 N8        29.44F WCI  29
$$

NEZ044-045-051>053-067-221200-
OMAHA AREA

CITY           SKY/WX    TMP DP  RH WIND       PRES   REMARKS
OMAHA EPPLEY   CLOUDY    37  34  89 N9        29.46S WCI  30
BLAIR          CLOUDY    37  34  90 NE9G20    29.46R WCI  30
FREMONT        LGT RAIN  36  34  93 N12G18    29.49F WCI  27
MILLARD        CLOUDY    38  35  87 N3        29.48R
OFFUTT AFB     CLOUDY    37  35  89 CALM      29.47R
PLATTSMOUTH    TSTM      36  36 100 N8        29.44F WCI  29
WAHOO          LGT RAIN  35  33  94 N14G23    29.48F WCI  26
$$




USA.gov is the U.S. government's official web portal to all federal, state and local government web resources and services.